CAPE
1017 1617 1699 1077 934 44 264 526 626 454 547 367 367 573 865 1319 1308 1009 763 678 827 1037 1390 1568 1864 2036 2014 2014 2036 1882 1940 2018 1985 2120 1924 1918 1574 1493 1966 1528 1305 1531 1922 2074 1831 1915 1692 1863 1558
1779 1880 1504 1056 91 272 510 531 556 439 508 501 791 883 1034 1540 1349 1095 742 876 927 993 1144 1514 1778 1988 2021 1955 1981 2116 2077 2047 2037 2132 1786 1624 1796 2162 1461 1392 1249 1387 1862 1793 1871 1713 1703 1546 1348
2150 1108 1473 235 77 404 377 511 452 649 656 369 829 860 1249 1531 1322 1029 924 928 923 951 1056 1614 1737 1903 1926 1954 2022 2120 2121 2069 1979 1674 1549 2066 1780 1355 1538 1725 1382 1312 1762 1466 1723 1739 1676 1666 1539
1083 1275 972 688 70 288 214 352 379 567 394 481 530 1057 1117 1071 1140 1201 893 936 935 925 1489 1573 1770 1949 1900 1898 1879 1909 1843 1761 1656 1520 1814 1808 1558 1928 1702 1573 1771 1723 1766 1728 1613 1551 1600 1626 1734
476 846 1067 380 180 262 365 332 313 90 222 309 394 973 1195 797 877 991 871 904 919 1403 1955 1436 1713 1885 1872 1838 1840 1857 1799 1734 1588 1104 2103 1337 1209 1569 1535 1586 1511 1694 1700 1581 1626 1474 1421 1466 1564
156 519 466 79 137 300 204 195 146 105 181 254 417 805 1067 992 908 808 747 757 786 1595 1334 1290 1408 1444 1699 1718 1744 1698 1635 1826 1840 1775 1889 1484 1068 1078 1236 1100 1273 1093 1445 1329 1343 1292 1314 1336 1365
80 331 429 70 206 356 250 371 485 193 252 191 252 847 1010 865 894 761 645 722 703 1118 971 1076 1085 1196 1463 1298 1576 1428 1404 1513 1724 2068 1632 1889 1692 932 1183 1025 1032 1103 1132 1226 1225 1289 1235 1098 999
1 847 232 167 101 198 336 469 373 414 170 141 367 1000 978 883 788 691 675 663 843 767 1090 913 937 829 486 1397 2340 1958 1032 760 1133 2010 2028 1543 1270 1129 585 709 972 943 1132 1203 1036 972 1141 1148 1136
120 700 55 82 34 217 371 271 565 475 560 498 295 635 884 822 679 679 741 879 1030 918 760 645 631 563 402 559 1832 2185 2135 1593 1054 896 1764 1516 967 652 753 457 314 878 1003 969 835 825 778 847 785
352 26 135 144 185 84 217 454 627 700 583 794 779 829 792 739 729 907 850 946 1037 870 653 528 321 201 270 169 1029 1858 1151 1234 1706 441 766 1414 358 390 394 475 757 871 858 886 563 364 282 185 300
306 141 34 64 183 276 234 386 538 581 442 687 878 969 824 808 806 1070 949 1046 1124 867 515 465 240 114 113 103 461 894 1238 246 335 1252 797 192 612 645 140 185 107 66 650 537 882 403 198 218 159
218 121 115 177 167 277 202 334 536 466 517 727 1058 1115 919 753 765 802 884 1038 927 636 450 435 153 189 290 176 139 265 588 355 285 554 733 396 97 217 163 115 190 44 174 347 440 677 456 402 248
163 148 44 68 73 185 190 251 379 489 806 927 1093 1169 1080 956 773 702 672 739 858 843 480 293 222 332 403 633 350 210 717 671 236 1106 720 327 194 207 213 242 80 84 197 197 173 491 319 470 447
25 37 29 41 58 156 107 238 159 643 1053 1237 1063 1007 1038 990 879 786 672 682 668 628 587 445 241 411 482 443 775 591 264 409 320 773 455 250 466 270 428 397 266 142 55 80 375 288 179 239 280
0 32 28 24 108 199 57 69 92 1124 1107 1377 1187 1024 993 1086 939 942 799 724 671 646 563 586 520 434 438 381 511 649 411 205 256 268 450 411 440 450 540 465 524 564 441 427 852 785 588 544 815
0 33 44 32 29 172 0 2 108 974 1031 1255 1290 1208 1061 1101 1035 1106 994 839 769 749 810 767 642 671 613 278 443 491 252 221 230 226 366 359 422 825 752 768 744 656 770 577 403 424 476 488 296
29 40 38 59 11 56 36 61 87 72 375 1004 1395 1334 1213 1178 1240 1295 1259 1111 1031 971 956 1112 1104 878 836 622 479 520 514 206 131 415 158 587 358 953 953 710 354 554 481 766 818 329 582 862 619
33 49 55 51 5 0 29 55 80 78 175 366 1355 1493 1396 1351 1369 1399 1446 1385 1332 1352 1378 1345 1195 1394 1170 1119 995 880 412 289 185 245 136 674 1052 801 1075 896 1232 1156 747 786 680 603 237 914 919
16 22 19 31 9 0 3 14 29 41 119 269 480 1510 1548 1518 1521 1492 1482 1482 1544 1742 1756 1752 1619 1731 1490 1230 1038 723 634 353 268 63 314 741 976 1094 1033 1077 889 190 542 497 375 1020 54 360 739
17 16 4 12 1 0 2 5 30 66 141 118 318 707 1552 1611 1661 1653 1645 1533 1518 1672 1852 2111 2049 2060 1882 1454 1412 1250 949 774 572 172 563 1192 377 741 1036 812 482 393 774 526 146 389 650 430 266
3 2 25 28 11 0 0 0 7 52 50 4 95 265 1025 1519 1655 1788 1767 1687 1686 1572 1892 2085 2297 2352 2249 1960 1768 1616 1436 1157 753 319 521 978 834 1159 732 181 300 159 789 896 225 99 721 308 265
0 0 4 12 0 8 26 27 28 12 15 7 80 270 533 1194 1518 1798 1817 1849 1761 1791 1853 2046 2360 2381 2473 2349 1869 1682 1516 1201 891 322 657 663 685 446 654 239 283 120 143 505 1177 1105 274 103 92
0 6 28 5 8 11 5 1 89 70 17 95 107 261 519 850 1005 1433 1715 1679 1709 1805 1867 1987 2469 2635 2625 2529 2172 1710 1690 1539 1076 556 403 372 329 409 315 141 8 37 294 281 782 988 773 436 262
0 0 7 4 0 15 29 9 106 34 16 25 95 244 397 409 501 1024 1298 1456 1625 1612 1767 1835 2323 2749 2826 2616 2416 2086 1578 1653 1358 1086 613 233 196 169 8 8 45 53 0 57 365 823 842 882 863
0 0 0 0 8 35 59 51 94 21 11 0 52 165 225 300 332 647 1038 1247 1481 1590 1607 1782 1908 2228 2418 2512 2232 2158 2066 1670 1487 1111 1134 1112 271 117 26 10 4 11 16 160 364 695 750 776 185
0 0 0 9 41 51 57 54 14 10 21 0 0 70 142 211 291 477 842 1033 1185 1423 1610 1704 1867 1914 1980 2141 2257 2300 2170 1996 1806 1532 1379 928 323 254 485 81 0 0 15 97 533 563 608 755 643
0 0 0 0 23 60 2 141 0 2 3 1 23 49 56 71 135 286 733 1077 1229 1393 1496 1433 1484 1652 1857 1983 2067 2095 2236 2021 1712 1493 1486 1318 891 692 501 138 65 45 140 494 580 667 862 1060 1080
0 0 0 0 0 1 52 0 34 10 7 44 23 52 80 107 84 178 663 978 1168 1380 1448 1487 1515 1661 1852 1784 1771 1845 1862 1812 1904 1492 1350 1229 928 970 378 384 671 330 413 542 778 867 678 452 838
0 0 0 0 0 18 72 51 62 27 11 14 25 17 128 254 381 398 635 953 1197 1470 1657 1742 1762 1735 1962 2004 1910 2022 1945 1743 1789 1758 1188 1299 1134 857 1020 784 917 729 676 892 1250 685 509 955 1057
0 0 0 0 0 11 22 26 1 0 0 3 22 22 508 539 508 615 870 1016 1318 1548 1635 1770 1728 1899 2165 2006 2033 1998 1919 1901 1694 1388 1284 1238 1058 1260 1155 1055 933 792 1036 993 899 920 941 745 625
CIN
-138 -68 -35 -104 -28 -48 -13 -3 -2 -2 -3 -3 -2 -3 -4 -1 -7 -5 -16 -17 -19 -39 -33 -20 -3 -0 -2 -4 -7 -10 -6 -2 -0 -0 -1 -0 -0 -3 -0 -0 -3 -0 -0 -0 -0 -0 -0 -0 -2
-24 -20 -29 -39 -27 -3 -4 -3 -1 -3 -2 -2 -2 -3 -3 -1 -22 -14 -11 -18 -9 -24 -26 -13 -6 -0 -1 -4 -6 -2 -0 -0 -0 -0 -0 -0 -0 -0 -1 -2 -2 -1 -1 -0 -0 -0 -0 -0 -0
-14 -52 -2 -24 -18 -2 -2 -0 -2 -0 -2 -2 -3 -3 -3 -7 -9 -2 -5 -9 -5 -11 -5 -3 -4 -1 -2 -1 -0 -0 -0 -0 -0 -1 -1 -0 -0 -4 -0 -0 -2 -1 -1 -0 -0 -0 -0 -0 -0
-26 -25 -24 -4 -3 -2 -1 -2 -2 -2 -1 -1 -3 -3 -44 -31 -1 -3 -14 -1 -3 -3 -3 -23 -2 -0 -0 -0 -0 -0 -0 -0 -2 -5 -0 -0 -0 -0 -0 -1 -0 -0 -0 -0 -0 -0 -0 -0 -0
-77 -15 -3 -8 -2 -1 -2 -2 -2 -7 -2 -2 -2 -1 -23 -70 -63 -8 -12 -3 -4 -6 -24 -18 -0 -0 -0 -0 -0 -0 -0 -0 -8 -17 -0 -6 -6 -0 -0 -0 -0 -0 -0 -0 -0 -0 -0 -0 -0
-41 -127 -37 -39 -18 -1 -5 -2 -4 -9 -2 -22 -1 -10 -44 -81 -56 -17 -6 -5 -2 -12 -5 -17 -5 -3 -0 -0 -0 -0 -0 -0 -0 -0 -2 -4 -11 -8 -0 -0 -0 -3 -0 -0 -0 -0 -0 -0 -0
-50 -20 -8 -12 -6 -1 -5 -4 -1 -6 -2 -5 -19 -4 -47 -84 -29 -8 -5 -3 -3 -3 -9 -22 -17 -10 -1 -8 -0 -2 -0 -0 -0 -0 -3 -0 -0 -9 -0 -0 -2 -0 -1 -0 -0 -0 -0 -1 -0
-5 -9 -1 -14 -7 -3 -4 -2 -3 -2 -12 -31 -4 -17 -55 -84 -25 -11 -4 -6 -4 -2 -3 -11 -12 -20 -61 -0 -0 -0 -17 -32 -8 -0 -0 -1 -2 -4 -16 -8 -1 -0 -1 -0 -0 -0 -0 -0 -1
-83 -6 -52 -16 -33 -3 -4 -4 -2 -2 -2 -1 -21 -2 -48 -68 -21 -6 -3 -6 -7 -2 -9 -11 -24 -41 -57 -27 -0 -0 -0 -0 -10 -7 -0 -2 -0 -1 -8 -9 -16 -3 -0 -0 -1 -0 -0 -3 -10
-30 -99 -25 -11 -10 -25 -3 -3 -2 -3 -2 -10 -24 -47 -77 -71 -17 -6 -13 -14 -7 -2 -7 -9 -37 -62 -48 -44 -2 -0 -11 -1 -0 -2 -1 -1 -32 -14 -9 -3 -10 -3 -0 -0 -13 -22 -31 -46 -2
-7 -48 -71 -56 -17 -1 -7 -3 -4 -3 -3 -6 -16 -75 -79 -45 -8 -1 -4 -6 -7 -1 -3 -10 -47 -74 -55 -26 -3 -2 -1 -9 -2 -1 -0 -2 -6 -10 -4 -14 -20 -12 -15 -2 -10 -26 -25 -2 -22
-5 -15 -28 -32 -32 -4 -9 -3 -4 -3 -4 -5 -31 -69 -93 -62 -20 -2 -2 -2 -2 -2 -3 -6 -40 -57 -11 -18 -10 -3 -9 -0 -3 -4 -1 -1 -4 -4 -10 -25 -25 -12 -11 -2 -10 -5 -1 -14 -28
-19 -41 -105 -81 -64 -13 -5 -2 -2 -1 -8 -3 -39 -71 -78 -61 -45 -13 -3 -1 -3 -4 -6 -13 -26 -44 -6 -2 -5 -3 -2 -3 -4 -6 -9 -2 -3 -1 -10 -4 -18 -11 -6 -5 -4 -12 -5 -6 -14
-29 -157 -153 -73 -61 -49 -49 -10 -16 -3 -14 -20 -47 -58 -57 -54 -51 -42 -37 -16 -5 -3 -5 -15 -44 -49 -30 -6 -1 -2 -5 -1 -3 -4 -1 -10 -2 -1 -5 -7 -2 -6 -17 -10 -15 -20 -32 -23 -14
-0 -116 -5 -4 -52 -2 -40 -18 -27 -5 -13 -25 -37 -49 -48 -50 -50 -67 -56 -35 -15 -6 -4 -2 -15 -35 -53 -37 -5 -2 -2 -5 -8 -2 -8 -13 -1 -1 -4 -2 -2 -2 -4 -2 -1 -1 -1 -4 -2
-0 -22 -67 -66 -65 -6 -0 -262 -13 -8 -11 -8 -14 -52 -65 -63 -67 -73 -60 -47 -35 -13 -7 -4 -2 -2 -15 -41 -13 -1 -10 -8 -8 -4 -4 -9 -4 -1 -3 -3 -5 -9 -7 -17 -23 -8 -3 -7 -7
-3 -7 -32 -69 -3 -5 -17 -22 -27 -1 -3 -3 -21 -28 -40 -60 -59 -69 -56 -50 -32 -18 -11 -3 -1 -1 -2 -7 -13 -6 -1 -16 -12 -10 -20 -7 -16 -2 -3 -13 -27 -16 -18 -2 -9 -28 -1 -5 -8
-8 -5 -49 -16 -27 -0 -3 -2 -5 -3 -3 -4 -8 -11 -35 -46 -52 -50 -58 -51 -28 -12 -2 -8 -19 -1 -0 -1 -0 -2 -7 -10 -16 -3 -8 -11 -3 -2 -0 -1 -2 -3 -4 -2 -5 -10 -25 -0 -3
-7 -6 -5 -2 -7 -0 -2 -3 -3 -5 -9 -3 -1 -13 -18 -33 -31 -28 -52 -46 -26 -7 -2 -1 -12 -1 -2 -2 -6 -1 -2 -5 -8 -45 -1 -10 -6 -0 -1 -0 -7 -48 -17 -16 -11 -3 -71 -6 -4
-3 -4 -3 -3 -1 -0 -1 -0 -6 -9 -4 -3 -3 -1 -11 -27 -32 -49 -36 -34 -45 -22 -26 -3 -4 -3 -2 -3 -1 -2 -1 -3 -2 -13 -6 -13 -33 -3 -3 -1 -33 -34 -4 -18 -55 -16 -21 -27 -11
-1 -3 -4 -5 -4 -0 -0 -0 -8 -4 -13 -5 -11 -10 -2 -25 -40 -52 -53 -41 -37 -43 -45 -19 -16 -7 -4 -2 -1 -2 -1 -2 -8 -15 -5 -8 -13 -1 -14 -70 -48 -55 -6 -4 -58 -75 -9 -19 -11
-0 -0 -1 -5 -0 -3 -4 -4 -164 -5 -5 -5 -5 -26 -8 -17 -37 -48 -54 -48 -49 -38 -21 -18 -9 -7 -2 -5 -2 -1 -1 -1 -4 -31 -54 -31 -33 -29 -5 -57 -42 -53 -42 -2 -0 -0 -43 -62 -47
-0 -4 -3 -3 -3 -4 -3 -3 -8 -6 -5 -8 -13 -20 -19 -11 -11 -33 -40 -44 -38 -44 -34 -28 -13 -3 -1 -1 -10 -2 -2 -1 -1 -16 -51 -88 -66 -48 -41 -48 -75 -64 -3 -10 -0 -1 -0 -14 -30
-0 -0 -3 -2 -0 -7 -4 -27 -9 -30 -28 -16 -9 -29 -18 -15 -7 -16 -21 -34 -43 -33 -46 -33 -21 -12 -2 -1 -4 -7 -6 -5 -3 -2 -60 -133 -81 -85 -155 -111 -63 -45 -2 -35 -9 -5 -1 -0 -1
-0 -0 -0 -4 -5 -8 -8 -6 -9 -33 -17 -0 -11 -23 -42 -23 -16 -11 -17 -23 -34 -47 -55 -55 -57 -51 -30 -16 -13 -12 -7 -7 -8 -9 -9 -41 -100 -79 -127 -79 -118 -114 -52 -0 -3 -5 -2 -1 -36
-0 -0 -0 -4 -8 -13 -6 -17 -7 -10 -30 -0 -0 -9 -23 -20 -13 -5 -17 -24 -34 -50 -68 -71 -67 -76 -68 -39 -16 -3 -4 -2 -1 -3 -2 -29 -79 -76 -22 -73 -0 -16 -54 -2 -1 -5 -1 -1 -6
-0 -0 -0 -0 -14 -10 -6 -10 -0 -13 -56 -1 -10 -5 -5 -3 -3 -4 -15 -35 -44 -85 -104 -104 -123 -120 -88 -54 -25 -7 -1 -1 -1 -7 -4 -1 -6 -5 -23 -91 -68 -51 -6 -0 -3 -2 -1 -2 -2
-0 -0 -0 -0 -0 -32 -9 -4 -6 -5 -36 -32 -28 -10 -5 -4 -12 -12 -12 -26 -54 -76 -89 -114 -126 -119 -82 -52 -40 -21 -17 -8 -0 -5 -2 -2 -10 -0 -51 -28 -0 -20 -4 -2 -1 -1 -17 -19 -2
-0 -0 -0 -0 -0 -13 -10 -7 -5 -13 -37 -40 -51 -43 -3 -5 -17 -19 -14 -30 -55 -77 -80 -111 -132 -115 -56 -26 -19 -10 -10 -6 -2 -0 -16 -1 -0 -7 -0 -0 -0 -0 -0 -0 -0 -19 -21 -0 -0
-0 -0 -0 -0 -0 -12 -11 -34 -1 -0 -0 -3 -67 -56 -9 -17 -24 -36 -33 -45 -63 -79 -87 -101 -123 -104 -50 -44 -19 -19 -17 -4 -6 -20 -10 -2 -4 -0 -0 -0 -0 -3 -0 -1 -2 -2 -1 -2 -1
Wind_Speed
21 19 19 11 18 22 19 20 17 23 22 22 21 18 15 11 10 20 23 25 26 24 24 25 23 22 21 21 22 22 25 25 25 24 24 23 21 18 16 17 19 19 12 17 19 21 20 20 15
20 19 18 17 15 20 22 23 21 19 20 21 21 21 19 21 14 23 27 24 27 24 25 24 21 19 18 19 19 18 20 22 22 22 22 23 19 13 13 14 18 21 21 19 17 16 17 17 17
15 17 17 19 21 23 22 20 23 22 20 20 18 16 16 18 20 23 23 27 26 25 24 21 21 18 17 17 18 18 18 19 20 21 21 18 8 9 9 9 8 18 22 23 18 17 16 15 16
19 20 18 17 22 18 24 23 22 19 18 15 17 18 19 17 19 20 26 27 25 25 20 20 20 19 17 16 19 20 18 17 19 20 19 17 7 11 9 7 6 9 7 21 20 20 18 17 15
17 16 17 20 20 23 22 22 19 21 19 18 16 17 17 17 18 21 28 27 24 22 18 19 19 19 18 17 20 20 21 21 20 17 17 16 8 10 9 8 8 11 17 19 19 18 19 17 14
15 15 18 22 21 21 21 21 20 22 20 18 17 18 18 18 22 26 27 25 23 21 20 18 18 19 18 19 19 19 18 20 18 12 11 14 10 14 14 12 9 9 10 20 17 18 16 15 15
13 13 17 20 20 20 20 20 17 21 19 19 18 18 17 18 24 25 25 24 23 19 20 20 20 19 17 18 19 20 19 17 16 6 9 8 16 17 18 15 17 8 14 19 14 9 20 16 12
15 14 18 16 19 19 19 20 19 19 21 19 16 18 15 18 23 24 24 22 17 17 18 21 19 20 20 18 16 17 18 16 17 5 15 17 16 19 20 20 20 20 20 20 21 18 14 13 11
15 16 18 19 18 17 17 20 19 19 20 19 19 18 17 21 22 21 20 16 15 20 16 19 19 19 19 18 12 14 16 18 17 21 17 18 16 20 20 10 17 20 20 16 16 14 14 13 13
16 17 17 17 17 17 17 18 18 16 19 20 20 19 20 22 21 17 17 15 20 22 19 18 20 19 19 19 12 12 19 19 20 21 21 22 19 19 15 11 19 21 20 18 18 17 16 19 14
10 17 15 15 17 17 17 16 17 17 19 18 17 18 19 20 19 18 17 17 19 23 18 16 19 20 17 21 15 12 14 21 21 21 21 20 21 19 19 10 18 19 19 18 16 16 17 18 16
9 12 13 15 14 14 13 16 15 18 19 19 17 17 17 16 16 18 17 16 16 18 17 15 17 19 17 15 20 20 15 13 22 18 22 21 19 12 15 12 22 19 15 13 15 6 18 9 9
6 10 11 12 12 12 16 14 17 15 17 16 16 16 16 15 15 17 15 14 16 14 15 17 14 16 19 16 17 22 15 12 21 7 16 23 20 19 13 20 21 21 16 13 13 15 20 20 8
15 13 10 10 9 10 10 10 12 15 15 15 14 14 14 14 13 14 15 14 16 12 12 13 14 12 16 14 21 19 17 21 17 7 7 19 23 20 9 16 21 19 18 19 10 11 18 18 12
15 8 6 8 10 13 8 8 9 13 13 13 13 13 12 12 12 11 13 13 13 10 10 11 12 11 14 14 14 20 23 16 18 2 6 6 20 24 23 21 11 22 20 21 19 18 17 15 13
5 6 4 14 9 10 12 7 12 11 13 12 12 11 12 14 14 12 15 15 13 12 8 8 13 15 14 19 16 19 19 21 10 11 5 3 24 26 23 23 23 21 21 20 22 21 18 15 15
3 2 11 7 4 14 12 22 12 12 11 10 10 10 11 12 13 11 12 13 13 11 6 6 15 18 15 16 18 17 21 18 23 2 5 3 20 22 25 25 25 16 18 13 21 21 19 15 10
8 3 4 9 11 7 6 10 21 14 9 8 8 10 11 11 12 13 14 15 14 14 13 15 18 19 15 11 15 14 17 19 9 20 10 11 9 16 16 23 23 22 24 22 10 14 22 20 9
14 21 16 9 14 16 8 19 23 22 6 7 8 9 9 11 12 13 16 17 17 18 23 22 20 19 16 16 10 16 14 15 13 17 10 5 3 2 17 22 24 24 26 25 24 23 23 9 6
20 20 14 13 15 10 19 13 24 21 10 8 6 8 7 8 10 14 17 18 19 19 20 19 20 19 18 15 14 12 13 11 12 10 5 9 9 7 14 23 26 25 25 25 26 26 21 23 8
17 13 14 18 16 24 12 9 9 12 6 7 5 4 6 7 11 12 16 18 19 21 20 19 18 17 17 16 13 11 8 7 1 5 0 2 4 11 14 22 23 26 28 27 23 25 20 26 16
10 12 31 21 21 14 10 14 26 7 13 8 6 7 6 9 11 14 16 18 18 18 17 17 16 17 17 17 16 15 12 8 9 9 2 4 1 2 9 19 19 26 28 29 24 20 12 7 20
26 28 18 19 25 30 17 9 8 8 9 16 14 9 11 12 15 16 18 18 18 17 17 16 15 14 15 15 21 15 16 11 6 8 3 4 4 8 4 21 23 30 24 31 25 15 11 15 23
33 29 22 24 20 12 1 17 14 6 14 15 13 11 12 14 16 18 18 18 17 17 15 15 14 15 14 14 17 22 16 14 6 5 6 5 5 5 8 15 24 21 24 21 27 29 24 11 28
29 26 24 16 8 7 3 9 11 18 10 15 13 9 9 12 15 17 18 16 15 14 13 13 12 12 14 14 16 17 20 13 12 8 8 5 8 6 8 7 6 10 10 32 34 33 30 22 30
22 35 26 18 16 4 1 8 18 23 12 13 10 7 11 12 14 13 13 13 13 12 12 11 11 11 12 13 12 13 13 12 10 9 9 7 7 5 4 7 9 16 21 27 33 35 33 25 29
36 28 38 40 38 33 1 14 13 15 17 11 16 13 7 9 10 10 7 9 10 10 10 10 9 9 11 11 11 8 7 9 8 8 8 5 3 3 3 10 13 19 23 28 29 31 32 27 6
38 32 27 37 44 40 27 26 19 6 7 9 13 13 7 6 8 7 7 7 8 8 9 8 8 8 9 9 10 9 3 2 8 3 5 5 7 8 7 13 13 16 19 22 26 29 29 10 14
29 40 33 36 35 38 27 29 4 12 16 16 12 13 9 10 10 9 8 7 8 9 9 9 9 8 7 8 9 9 6 4 4 2 4 8 6 8 10 11 9 10 11 4 14 24 32 32 30
43 35 34 32 35 31 36 28 16 8 13 12 17 13 11 13 10 10 9 9 10 10 9 10 9 8 7 7 7 8 6 6 5 5 6 7 9 9 7 6 8 8 7 5 2 8 23 29 27
Wind_Direction
116 120 180 238 149 111 116 117 145 103 88 82 68 111 28 304 288 96 99 111 110 105 107 108 102 99 95 93 96 100 111 111 108 111 120 134 140 151 159 168 166 165 202 47 53 66 64 63 46
104 135 177 159 161 100 95 100 107 113 50 81 88 100 115 60 346 89 110 108 114 108 111 108 101 94 89 89 87 86 95 101 99 97 102 120 152 178 178 178 173 158 145 60 52 50 54 55 56
160 147 166 153 110 61 70 109 90 73 92 103 95 132 140 96 81 97 102 115 113 111 113 104 103 95 90 87 86 84 84 88 92 98 98 73 275 226 214 207 217 166 81 83 57 58 57 52 54
141 134 135 152 66 69 60 89 76 98 93 124 106 77 84 127 93 105 115 120 113 118 104 106 105 100 94 89 96 97 88 84 96 100 94 69 290 222 239 282 302 353 288 81 69 74 69 66 53
152 144 137 118 47 84 64 74 88 64 69 84 114 69 65 106 110 102 122 122 113 107 99 108 107 104 102 96 106 104 110 114 109 91 85 68 300 257 318 304 263 10 51 69 74 68 74 69 53
169 143 140 72 57 80 74 78 69 50 63 51 91 45 44 82 120 117 122 121 117 104 108 108 107 109 104 106 107 106 104 111 104 65 52 68 278 227 214 232 329 325 2 89 63 73 63 56 62
188 182 148 61 67 64 59 71 107 47 77 69 73 49 51 82 118 119 123 120 123 105 106 114 117 114 108 109 113 115 111 101 93 319 304 322 223 202 193 208 72 294 211 67 135 11 94 65 38
167 159 119 39 48 45 68 57 63 8 21 35 50 35 75 100 118 118 122 119 101 107 110 121 117 121 120 114 104 104 110 101 112 328 248 229 236 200 170 150 163 175 161 94 113 87 53 47 26
178 249 87 46 56 55 82 47 56 55 61 41 30 17 88 109 118 118 114 99 102 124 112 120 120 122 123 123 92 96 104 113 108 183 236 228 234 187 168 281 126 185 178 82 93 55 67 59 68
155 45 53 14 15 40 36 22 48 77 46 42 37 38 92 112 120 112 123 115 130 139 129 122 130 128 127 131 100 97 130 140 156 169 191 204 226 195 258 92 145 170 164 140 130 119 124 154 117
48 319 16 25 345 344 23 34 26 38 39 35 50 70 96 112 123 123 129 128 133 149 129 123 132 138 123 140 115 109 120 162 165 189 183 199 170 179 217 79 147 149 150 153 134 132 154 162 138
33 4 1 0 16 12 74 32 46 354 17 25 58 77 95 106 117 132 130 128 131 136 134 127 132 142 133 120 141 150 124 114 179 144 182 202 208 287 273 103 187 162 119 135 146 346 174 31 73
51 24 16 15 23 42 342 24 9 52 23 41 60 78 93 102 112 130 129 127 134 134 137 142 134 137 150 139 133 165 129 118 182 55 147 213 201 199 95 226 193 179 138 134 137 302 195 226 40
329 338 3 31 47 50 55 64 63 36 43 49 72 83 94 99 103 119 130 131 141 134 138 137 142 137 149 145 170 160 152 179 162 91 67 183 229 241 253 160 201 173 177 219 32 123 186 181 144
331 7 76 103 58 25 105 99 83 62 57 72 86 92 95 103 107 117 129 134 136 134 140 145 144 143 151 151 150 170 187 155 164 158 8 85 185 239 232 247 290 223 205 216 212 202 187 165 153
33 127 133 327 41 37 176 260 72 78 78 85 104 98 109 124 125 122 137 141 141 142 146 156 157 158 150 163 158 172 175 186 141 150 5 48 201 219 263 263 258 278 258 264 225 222 196 177 172
75 116 342 7 27 340 6 300 291 12 63 92 99 104 126 128 133 126 134 140 142 144 140 155 164 167 159 159 166 169 186 177 193 207 298 50 185 278 269 272 265 306 193 166 215 229 212 178 135
337 4 58 353 350 26 178 177 218 188 60 65 99 123 132 140 148 140 146 147 145 148 145 149 159 167 162 152 166 165 178 184 161 185 161 305 326 177 299 281 281 287 233 245 348 340 268 221 134
320 298 319 357 327 330 12 222 231 218 112 50 142 128 134 150 150 151 155 155 154 154 165 162 158 158 158 162 154 172 170 174 170 182 167 314 155 29 297 283 280 284 257 260 274 258 281 8 57
295 292 309 319 327 337 238 224 239 215 171 16 93 134 131 137 144 156 161 160 164 164 167 161 165 165 166 164 165 162 167 164 168 165 150 161 170 168 301 282 274 276 282 276 265 272 304 285 18
289 290 304 303 322 257 193 183 169 172 34 32 113 101 123 137 146 148 158 163 164 170 168 168 170 171 172 176 170 171 164 157 81 151 231 131 301 304 303 286 284 279 275 274 297 290 307 263 319
272 285 259 298 300 328 356 339 269 69 342 170 61 101 101 121 139 144 154 162 165 169 166 169 171 177 180 181 183 182 179 184 181 176 224 319 166 275 314 295 300 289 279 277 295 309 332 349 311
262 260 287 295 285 264 205 347 8 24 22 348 352 65 98 117 130 142 151 154 163 162 168 170 168 174 182 185 193 189 193 190 183 188 205 210 260 299 317 296 298 272 294 276 288 314 330 318 293
251 264 282 283 289 304 339 277 332 18 344 340 18 58 94 109 125 141 149 149 152 157 158 165 165 174 178 183 190 200 197 195 197 202 194 233 245 244 277 298 295 293 293 295 283 277 291 312 264
260 266 273 284 276 287 195 307 309 274 349 332 345 37 85 108 125 134 144 146 148 143 150 157 158 168 177 180 188 191 199 197 199 201 198 210 197 264 243 257 272 203 232 268 254 262 272 299 272
261 251 262 276 286 259 45 326 288 275 339 340 359 13 106 119 133 128 135 139 137 140 143 149 154 162 170 178 181 185 189 194 196 200 196 201 208 224 256 206 199 200 204 217 229 240 237 287 239
249 258 249 249 249 262 163 310 292 302 296 337 295 314 110 116 121 116 104 123 129 132 136 138 144 148 159 166 172 175 179 182 185 188 191 195 181 195 192 182 190 189 199 216 215 222 236 227 217
250 256 259 254 243 249 279 274 295 291 300 323 311 313 9 13 0 43 92 109 116 114 120 122 125 131 144 154 156 157 164 185 176 156 156 159 157 155 153 171 175 181 191 199 229 254 227 199 304
253 248 258 257 253 254 275 273 287 280 282 289 317 324 348 339 343 15 65 86 99 106 104 106 109 103 106 127 137 143 132 130 143 113 135 153 135 140 150 161 156 163 176 182 300 287 269 272 285
248 252 252 254 250 257 247 268 283 306 287 288 280 325 2 328 0 11 52 83 99 102 92 92 86 83 79 98 110 128 109 111 111 121 120 126 134 137 129 120 141 148 146 145 348 318 298 289 294